#timestamp,LO_Frequency,Hit 
1500296415.2,286046107.9,N
1500296435.1,286046107.2,N
1500296436.0,286046107.2,N
1500296455.8,286046107.8,N
1500296475.6,286046108.4,N
1500296495.5,286046107.9,N
1500296515.3,286046108.0,N
1500296535.2,286046107.9,N
1500296555.9,286046108.1,N
1500296575.7,286046106.9,N
1500296595.6,286046107.3,N
1500296615.4,286046108.2,N
1500296635.2,286046107.8,N
1500296655.1,286046108.3,N
1500296656.0,286046108.3,N
1500296675.8,286046106.5,N
1500296695.7,286046106.1,N
1500296715.5,286046105.5,N
1500296735.3,286046106.5,N
1500296755.2,286046104.0,N
1500296775.0,286046104.1,N
1500296775.9,286046104.1,N
1500296795.7,286046106.1,N
1500296815.6,286046107.9,N
1500296835.4,286043599.0,N
1500296855.3,286046105.5,N
1500296875.1,286046105.5,N
1500296876.0,286046105.5,N
1500296895.8,286046108.0,N
1500296915.7,286046108.4,N
1500296935.5,286046106.5,N
1500296955.4,286046106.2,N
1500296975.2,286046103.7,N
1500296995.0,286046103.8,N
1500296995.9,286046103.8,N
1500297015.8,286046105.0,N
1500297035.6,286046102.1,N
1500297055.4,286046105.2,N
1500297075.3,286046102.6,N
1500297095.1,286046104.8,N
1500297115.9,286046104.7,N
1500297135.7,286046105.0,N
1500297155.5,286046103.8,N
1500297175.4,286046103.7,N
1500297195.2,286046104.1,N
1500297215.0,286046104.0,N
1500297215.9,286046104.0,N
1500297235.8,286046104.3,N
1500297255.6,286046103.8,N
1500297275.5,286046104.8,N
1500297295.3,286046104.7,N
1500297315.1,286046104.7,N
1500297335.9,286046102.2,N
1500297355.7,286046104.6,N
1500297375.6,286046104.3,N
1500297395.4,286046104.6,N
1500297415.2,286046104.4,N
1500297435.1,286046105.0,N
1500297436.0,286046105.0,N
1500297455.8,286046102.3,N
1500297475.6,286046103.0,N
1500297495.5,286046102.9,N
1500297515.3,286046103.2,N
1500297535.2,286046103.6,N
1500297555.9,286046103.5,N
1500297575.7,286046103.6,N
1500297595.6,286046103.4,N
1500297615.4,286046102.9,N
1500297635.2,286046103.1,N
1500297655.1,286046100.6,N
1500297656.0,286046100.6,N
1500297675.8,286046100.7,N
1500297695.7,286046100.7,N
1500297715.5,286046103.2,N
1500297735.3,286046100.6,N
1500297755.2,286046103.3,N
1500297775.0,286046102.6,N
1500297775.9,286046102.6,N
1500297795.8,286046102.6,N
1500297815.6,286046103.6,N
1500297835.4,286046102.2,N
1500297855.3,286046105.1,N
1500297875.1,286046104.8,N
1500297895.9,286046106.4,N
1500297915.7,286046104.5,N
1500297935.5,286046105.0,N
1500297955.4,286046104.4,N
1500297975.2,286046102.1,N
1500297995.0,286046104.0,N
1500297995.9,286046104.0,N
1500298015.8,286046102.2,N
1500298035.6,286046104.6,N
1500298055.5,286046105.1,N
1500298075.3,286046105.1,N
1500298095.1,286046104.4,N
1500298115.9,286046104.0,N
1500298135.7,286046104.0,N
1500298155.5,286046103.9,N
1500298175.4,286046102.1,N
1500298195.2,286046104.0,N
1500298215.1,286046106.8,N
1500298216.0,286046106.8,N
1500298235.8,286046106.4,N
1500298255.6,286046106.7,N
1500298275.5,286046103.9,N
1500298295.3,286046106.8,N
1500298315.2,286046104.2,N
1500298335.9,286046104.4,N
1500298355.7,286046103.7,N
1500298375.6,286046106.4,N
1500298395.4,286046105.8,N
1500298415.2,286046106.0,N
1500298435.1,286046105.5,N
1500298436.0,286046105.5,N
1500298455.8,286046108.4,N
1500298475.7,286046105.3,N
1500298495.5,286046107.9,N
1500298515.3,286046105.5,N
1500298535.2,286046107.9,N
1500298555.0,286046105.7,N
1500298555.9,286046105.7,N
1500298575.7,286046106.5,N
1500298595.6,286046107.9,N
1500298615.4,286046108.4,N
1500298635.3,286046107.6,N
1500298655.1,286046108.2,N
1500298656.0,286046108.2,N
1500298675.8,286046107.8,N
1500298695.7,286046108.0,N
1500298715.5,286046105.5,N
1500298735.4,286046105.6,N
1500298755.2,286046105.7,N
1500298775.0,286046107.9,N
1500298775.9,286046107.9,N
1500298795.8,286046106.9,N
1500298815.6,286046107.3,N
1500298835.4,286046107.6,N
1500298855.3,286046107.1,N
1500298875.1,286046107.1,N
1500298895.9,286046106.9,N
1500298915.7,286046108.3,N
1500298935.5,286046105.4,N
1500298955.4,286046107.9,N
1500298975.2,286046108.1,N
1500298995.0,286046109.9,N
1500298995.9,286046115.9,N
1500299015.8,286046107.0,N
1500299035.6,286046107.9,N
1500299055.5,286046107.1,N
1500299075.3,286046107.1,N
1500299095.1,286046107.8,N
1500299115.9,286046106.0,N
1500299135.7,286046105.4,N
1500299155.5,286046107.3,N
1500299175.4,286046107.4,N
1500299195.2,286046107.7,N
1500299215.1,286046108.3,N
1500299216.0,286046108.3,N
1500299235.8,286046105.8,N
1500299255.6,286046107.8,N
1500299275.5,286046105.3,N
1500299295.3,286046105.3,N
1500299315.2,286046105.3,N
1500299335.9,286046107.6,N
1500299355.7,286046108.1,N
1500299375.6,286046107.8,N
1500299395.4,286046107.3,N
1500299415.2,286046111.6,N
1500299435.1,286046111.0,N
1500299436.0,286046111.0,N
1500299455.8,286046111.5,N
1500299475.7,286046111.5,N
1500299495.5,286046109.2,N
1500299515.3,286046109.4,N
1500299565.2,286046111.2,Y
1500299575.1,286046537.0,N
1500299595.9,286046999.6,N
1500299615.7,286046996.6,N
1500299635.5,286046999.2,N
1500299655.4,286046999.4,N
1500299675.2,286047001.0,N
1500299695.1,286046998.8,N
1500299696.0,286046998.8,N
1500299715.8,286046998.2,N
1500299735.6,286046998.7,N
1500299755.5,286046999.0,N
1500299775.3,286046999.0,N
1500299795.2,286046997.2,N
1500299815.9,286046997.5,N
1500299835.7,286046996.6,N
1500299855.6,286046996.7,N
1500299875.4,286046998.7,N
1500299895.2,286046998.6,N
1500299915.1,286046996.8,N
1500299916.0,286046996.8,N
1500299935.8,286046996.6,N
1500299955.7,286046998.1,N
1500299975.5,286046998.1,N
1500299995.3,286046998.2,N
